[TLELIST] Archives

 

[list_settings.list_name] Current TLEs

September 20th 2021 PDT

HST 1 20580U 90037B 21262.91087448 .00000623 00000-0 26679-4 0 9993 2 20580 28.4693 160.0395 0002629 4.3896 49.9995 15.09739895525285 ISS (ZARYA) 1 25544U 98067A 21263.28669914 .00003142 00000-0 66459-4 0 9993 2 25544 51.6436 232.5048 0003357 32.0581 110.2065 15.48413394303337 CXO 1 25867U 99040B 21263.31488134 .00000720 00000-0 00000+0 0 9994 2 25867 52.7757 251.1561 8461965 227.1892 0.7198 0.37808221 21935 ____________________________________________________________________ These 2-Line ...Continue Reading

[list_settings.list_name] Current TLEs

September 19th 2021 PDT

HST 1 20580U 90037B 21261.47649050 .00000637 00000-0 27506-4 0 9991 2 20580 28.4693 169.5321 0002596 348.9419 174.0248 15.09738591525068 ISS (ZARYA) 1 25544U 98067A 21262.19686343 .00001502 00000-0 36112-4 0 9998 2 25544 51.6434 237.8880 0003289 31.7976 151.4196 15.48407779303168 CXO 1 25867U 99040B 21263.31488134 .00000720 00000-0 00000+0 0 9994 2 25867 52.7757 251.1561 8461965 227.1892 0.7198 0.37808221 21935 ____________________________________________________________________ These 2-Line ...Continue Reading

[list_settings.list_name] Current TLEs

September 18th 2021 PDT

HST 1 20580U 90037B 21261.20597003 .00000682 00000-0 30210-4 0 9998 2 20580 28.4693 171.3223 0002574 345.9629 143.7943 15.09738553525294 ISS (ZARYA) 1 25544U 98067A 21261.35064343 .00001779 00000-0 41233-4 0 9991 2 25544 51.6436 242.0716 0003232 28.8192 114.2371 15.48405694303033 CXO 1 25867U 99040B 21263.31488134 .00000720 00000-0 00000+0 0 9994 2 25867 52.7757 251.1561 8461965 227.1892 0.7198 0.37808221 21935 ____________________________________________________________________ These 2-Line ...Continue Reading

[list_settings.list_name] Current TLEs

September 17th 2021 PDT

HST 1 20580U 90037B 21259.49340718 .00000732 00000-0 33254-4 0 9992 2 20580 28.4693 182.6553 0002506 326.2546 197.1735 15.09736868524760 ISS (ZARYA) 1 25544U 98067A 21260.38326868 .00002108 00000-0 47329-4 0 9995 2 25544 51.6436 246.8533 0003182 25.6729 121.4393 15.48402825302886 CXO 1 25867U 99040B 21260.67096212 .00000763 00000-0 00000-0 0 9990 2 25867 52.8139 251.2486 8457502 227.1851 0.7350 0.37810740 10795 ____________________________________________________________________ These 2-Line ...Continue Reading

[list_settings.list_name] Current TLEs

September 16th 2021 PDT

HST 1 20580U 90037B 21258.22890376 .00000766 00000-0 35336-4 0 9992 2 20580 28.4693 191.0233 0002459 311.8676 165.2946 15.09735515524577 ISS (ZARYA) 1 25544U 98067A 21259.21473368 .00002068 00000-0 46608-4 0 9997 2 25544 51.6428 252.6298 0003137 21.2391 87.8773 15.48395478302700 CXO 1 25867U 99040B 21260.67096212 .00000763 00000-0 00000-0 0 9990 2 25867 52.8139 251.2486 8457502 227.1851 0.7350 0.37810740 10795 ____________________________________________________________________ These 2-Line ...Continue Reading

[list_settings.list_name] Current TLEs

September 15th 2021 PDT

HST 1 20580U 90037B 21258.14516638 .00000773 00000-0 35712-4 0 9995 2 20580 28.4693 191.5775 0002457 310.8197 70.3237 15.09735456524829 ISS (ZARYA) 1 25544U 98067A 21258.38207780 .00001039 00000-0 27542-4 0 9990 2 25544 51.6437 256.7452 0003014 21.4856 123.1665 15.48391090302574 CXO 1 25867U 99040B 21258.02759137 .00000747 00000-0 00000-0 0 9990 2 25867 52.8836 251.3691 8453033 227.1682 0.8227 0.37807893 10783 ____________________________________________________________________ These 2-Line ...Continue Reading

[list_settings.list_name] Current TLEs

September 14th 2021 PDT

HST 1 20580U 90037B 21256.31439949 .00000830 00000-0 39170-4 0 9997 2 20580 28.4692 203.6928 0002428 289.7336 201.3829 15.09733389524286 ISS (ZARYA) 1 25544U 98067A 21257.34708416 .00002530 00000-0 55183-4 0 9996 2 25544 51.6453 261.8595 0003165 17.3736 114.2074 15.48388721302410 CXO 1 25867U 99040B 21258.02759137 .00000747 00000-0 00000-0 0 9990 2 25867 52.8836 251.3691 8453033 227.1682 0.8227 0.37807893 10783 ____________________________________________________________________ These 2-Line ...Continue Reading

[list_settings.list_name] Current TLEs

September 13th 2021 PDT

HST 1 20580U 90037B 21255.90080343 .00000840 00000-0 39791-4 0 9991 2 20580 28.4692 206.4297 0002425 284.8831 113.8651 15.09732840524224 ISS (ZARYA) 1 25544U 98067A 21256.38109334 -.00001045 00000-0 -11106-4 0 9992 2 25544 51.6428 266.6300 0003165 14.0929 129.3198 15.48378000302263 CXO 1 25867U 99040B 21258.02759137 .00000747 00000-0 00000-0 0 9990 2 25867 52.8836 251.3691 8453033 227.1682 0.8227 0.37807893 10783 ____________________________________________________________________ These 2-Line ...Continue Reading

[list_settings.list_name] Current TLEs

September 12th 2021 PDT

HST 1 20580U 90037B 21255.18234913 .00000835 00000-0 39468-4 0 9990 2 20580 28.4691 211.1843 0002416 276.5496 169.6311 15.09731900524372 ISS (ZARYA) 1 25544U 98067A 21255.41247965 -.00169582 00000-0 -32169-2 0 9999 2 25544 51.6444 271.4140 0003106 18.8428 121.7661 15.48281334302116 CXO 1 25867U 99040B 21255.38382709 .00000749 00000-0 00000-0 0 9995 2 25867 52.9505 251.4752 8448738 227.1725 0.8452 0.37806930 10769 ____________________________________________________________________ These 2-Line ...Continue Reading

[list_settings.list_name] Current TLEs

September 11th 2021 PDT

HST 1 20580U 90037B 21253.33733914 .00000818 00000-0 38463-4 0 9995 2 20580 28.4691 223.3942 0002425 254.9757 223.6379 15.09729558524097 ISS (ZARYA) 1 25544U 98067A 21254.44508609 .00002462 00000-0 53495-4 0 9994 2 25544 51.6432 276.1989 0003474 21.5641 122.8152 15.48628317301967 CXO 1 25867U 99040B 21255.38382709 .00000749 00000-0 00000-0 0 9995 2 25867 52.9505 251.4752 8448738 227.1725 0.8452 0.37806930 10769 ____________________________________________________________________ These 2-Line ...Continue Reading
  • This mailing list is a public mailing list - anyone may join or leave, at any time.
  • This mailing list is announce-only.

International Space Station (ISS) / Hubble Space Telescope (HST) / Chandra X-Ray Observatory Orbital Data via EMAIL

Privacy Policy:

Private list